This demonstration page uses our WeatherBlox Daily Observations layout. Learn more.

Left ArrowRight Arrow

Hourly Observations for March 31, 2020

Temp ( °F °C ) Dew Point ( °F °C ) Humidity (%) Winds ( mph kmh ) Pressure ( in mb ) Visibility ( mi km ) Precip ( " mm )
12:53 am 00:53 Clear 45 7.2 35 1.7 68 68 N 3 6 30.09 1019 10 16.0934 N/A
1:53 am 01:53 Clear 44 6.7 34 1.1 68 68 N 5 7 30.09 1019 10 16.0934 N/A
2:53 am 02:53 Clear 43 6.1 34 1.1 71 71 NNW 5 7 30.08 1019 10 16.0934 N/A
3:53 am 03:53 Clear 41 5 34 1.1 76 76 NNW 5 7 30.06 1018 10 16.0934 N/A
4:53 am 04:53 Clear 41 5 34 1.1 76 76 NNW 3 6 30.05 1018 10 16.0934 N/A
5:53 am 05:53 Clear 41 5 34 1.1 76 76 N N/A 30.03 1017 10 16.0934 N/A
6:53 am 06:53 Clear 40 4.4 34 1.1 79 79 N 3 6 30.04 1017 10 16.0934 N/A
7:53 am 07:53 Sunny 40 4.4 33 0.6 77 77 NNE 7 11 29.99 1016 10 16.0934 N/A
8:40 am 08:40 Mostly Cloudy 40 4.4 33 0.6 77 77 NNE 8 13 30.02 1017 10 16.0934 N/A
8:53 am 08:53 Cloudy 40 4.4 33 0.6 77 77 N 6 9 30.01 1016 10 16.0934 N/A
9:53 am 09:53 Cloudy 41 5 34 1.1 76 76 NE 6 9 29.98 1015 10 16.0934 N/A
10:53 am 10:53 Partly Cloudy 42 5.6 34 1.1 73 73 ENE 7 11 29.98 1015 10 16.0934 N/A
11:53 am 11:53 Mostly Cloudy 44 6.7 35 1.7 71 71 ENE 6 9 29.94 1014 10 16.0934 N/A
12:48 pm 12:48 Partly Cloudy 46 8 36 2 66 66 N N/A 29.94 1014 10 16.0934 N/A
12:53 pm 12:53 Mostly Cloudy 46 7.8 36 2.2 68 68 ENE 7 11 29.93 1014 10 16.0934 N/A
1:53 pm 13:53 Cloudy 46 7.8 36 2.2 68 68 NNW 3 6 29.91 1013 10 16.0934 N/A
2:03 pm 14:03 Mostly Cloudy 46 7.8 35 1.7 66 66 NNW 5 7 29.92 1013 10 16.0934 N/A
2:51 pm 14:51 Mostly Cloudy 48 9 36 2 62 62 NNW 7 11 29.9 1013 10 16.0934 N/A
2:53 pm 14:53 Mostly Cloudy 48 8.9 36 2.2 63 63 N 7 11 29.9 1012 10 16.0934 N/A
3:02 pm 15:02 Mostly Cloudy 47 8.3 35 1.7 63 63 N 6 9 29.9 1013 10 16.0934 N/A
3:53 pm 15:53 Cloudy 46 7.8 34 1.1 63 63 NNW 7 11 29.88 1012 10 16.0934 N/A
4:53 pm 16:53 Cloudy 46 7.8 34 1.1 63 63 N 8 13 29.87 1012 10 16.0934 N/A
5:53 pm 17:53 Cloudy 47 8.3 34 1.1 61 61 N 10 17 29.88 1012 10 16.0934 N/A
6:53 pm 18:53 Cloudy 46 7.8 34 1.1 63 63 NNE 8 13 29.89 1012 10 16.0934 N/A
7:53 pm 19:53 Cloudy 45 7.2 35 1.7 68 68 N 10 17 29.9 1013 10 16.0934 N/A
8:53 pm 20:53 Cloudy 44 6.7 36 2.2 73 73 N 8 13 29.92 1013 10 16.0934 N/A
9:53 pm 21:53 Cloudy 43 6.1 37 2.8 80 80 N 6 9 29.93 1014 10 16.0934 0.001 0.001
10:53 pm 22:53 Cloudy 43 6.1 37 2.8 80 80 N 6 9 29.93 1014 10 16.0934 N/A
11:53 pm 23:53 Cloudy 42 5.6 38 3.3 85 85 NNW 6 9 29.93 1014 10 16.0934 0.001 0.001

Powered by AerisWeather